Japanese version Home page |
Updated on March 27, 2010 |
Profile
|
Orbital ElementsEpoch 2002 Mar. 27.0 TT = JDT 2452360.5 T 2002 Mar. 19.11709 TT MPC q 2.7361199 (2000.0) P Q n 0.12347802 Peri. 333.51637 -0.99720644 -0.03806503 a 3.9940143 Node 204.55866 +0.05377213 -0.96303442 e 0.3149449 Incl. 8.89533 -0.05184472 -0.26667538 P 7.98
|
Magnitudes Graphm1 = 12.0 + 5 log d + 10.0 log r
|
The orbital elements are published on M.P.E.C. 2010-F50.
|